ARIANE 42P DEB, 44511

Orbit data source: Space-Track

ARIANE 42P DEB, 44511 is space debris in LEO originally from a launch on Mon, 10 Aug 1992 UTC launched from the French Guiana (FRGUI). Debris objects in space refer to the collection of defunct objects orbiting the Earth. Examples of debris include non-operational satellites, rocket bodies, and fragments generated from explosions, collisions, or faulty payload assembly.

Loading next visibility...
Identifier
44511, 1992-052J
Orbit
LEO
Last TLE update
5 hours ago
Origin
Manufacturer
ArianeGroup
Mission
Spacecraft
Bus & Motor
Unknown
Mass
Unknown
Launch date (UTC)
1992-08-10 (33 years ago)
Launch vehicle
Unknown
Launch site
French Guiana (FRGUI)
Object type
Payload
Rocket body
Debris
Shape & HBR
Unknown
Radar Cross Section
Small (<0.1 m²)

Expand to show TLE details & history

TLE from 5 hours ago
0 ARIANE 42P DEB
1 44511U 92052J   25186.57778614  .00001044  00000-0  45520-2 0  9997
2 44511  66.0641 283.1615 0046077 106.4280 254.1809 12.84354909275694
Epoch: 2025-07-05T13:52Z
TLE epoch observation values (Epoch: 2025-07-05T13:52:00.722Z)
Latitude
-0°
Longitude
151.34466°
Altitude
1,335.752 km
Speed
7.186 km/s
True Right ascension
18h 52m 38s
True Declination
0° 00' 00"
Sunlit
Object was in full shadow at epoch
Visualization orbit readout
Latitude
-5.13265°
Longitude
-26.79006°
Altitude
1,319.895 km
Speed
7.2 km/s
Apparent Right ascension
07h 52m 44s
Apparent Declination
-58° 43' 25"
Sunlit
Object is in daylight
Visualization observer readout
Local Sidereal Time
06:29:14
Azimuth
169.168° S
Elevation
-10.157°
Doppler factor
1
Orbital elements
Apogee altitude
1,358.05 km
Perigee altitude
1,287.085 km
Semi-major axis
7,700.705 km
Eccentricity
0.00461
Inclination
66.0641°
RAAN
283.1615°
Arg. of periapsis
106.428°
True anomaly
Unknown
Mean anomaly
254.1809°
Eccentric anomaly
Unknown
Mean motion
3.21179 °/min
Orbital period
112.09 mins
BSTAR
0.004552
Loading maneuver chart data...
Loading SW <> Apogee altitude chart data...
Loading historical data...
Loading historical data...
Loading historical data...
Loading historical data...
Loading historical data...
Loading historical data...
Loading historical data...

ARIANE 42P DEB Visibility forecast

Observer location: undefined°, undefined°

Span
Click to sort rows by Start time (UTC) header in descending order
Start Az.
Max El. time (UTC)
Max El. Az.
Max El.
End time (UTC)
End Az.
12 mins2025-07-06 06:46:41.602Z161.335° S2025-07-06 06:52:41.602Z111.518° ESE25.969°2025-07-06 06:58:41.602Z54.891° ENE
14 mins2025-07-06 08:41:41.602Z227.421° WSW2025-07-06 08:47:41.602Z288.182° WNW40.955°2025-07-06 08:55:41.602Z24.139° NE
8 mins2025-07-06 10:41:41.602Z296.382° NW2025-07-06 10:45:41.602Z329.625° NNW16.572°2025-07-06 10:49:41.602Z2.408° NNE
8 mins2025-07-06 14:41:41.602Z1.343° NNE2025-07-06 14:45:41.602Z35.15° NE16.193°2025-07-06 14:49:41.602Z66.984° ENE
13 mins2025-07-06 16:36:41.602Z339.768° N2025-07-06 16:42:41.602Z56.45° ENE40.885°2025-07-06 16:49:41.602Z133.072° SE
|